This is the latest recevied weather packets stored in our database for station/object DO1SN-13. If no packets are shown the sender has not sent any weather packets the latest 10 day(s).
| Time | Temp. | Humidity | Pressure | Rain* | Wind** | Luminosity | Snow |
|---|---|---|---|---|---|---|---|
| 1787460233 | 18.33° C | - | 1024.9 hPa | 0 mm | - | - | - |
| 1787459869 | 18.33° C | - | 1024.9 hPa | 0 mm | - | - | - |
| 1787459505 | 18.89° C | - | 1024.9 hPa | 0 mm | - | - | - |
| 1787459141 | 17.78° C | - | 1024.9 hPa | 0 mm | - | - | - |
| 1787458776 | 18.33° C | - | 1024.8 hPa | 0 mm | - | - | - |
| 1787458412 | 18.33° C | - | 1024.8 hPa | 0 mm | - | - | - |
| 1787458048 | 18.33° C | - | 1024.7 hPa | 0 mm | - | - | - |
| 1787457684 | 18.33° C | - | 1024.6 hPa | 0 mm | - | - | - |
| 1787457320 | 18.33° C | - | 1024.7 hPa | 0 mm | - | - | - |
| 1787456956 | 18.33° C | - | 1024.8 hPa | 0 mm | - | - | - |
| 1787456591 | 18.89° C | - | 1024.8 hPa | 0 mm | - | - | - |
| 1787456227 | 18.33° C | - | 1024.7 hPa | 0 mm | - | - | - |
| 1787455863 | 16.67° C | - | 1024.9 hPa | 0 mm | - | - | - |
| 1787455499 | 13.89° C | - | 1024.9 hPa | 0 mm | - | - | - |
| 1787455135 | 14.44° C | - | 1024.9 hPa | 0 mm | - | - | - |
| 1787454770 | 13.33° C | - | 1024.9 hPa | 0 mm | - | - | - |
| 1787454406 | 13.33° C | - | 1024.9 hPa | 0 mm | - | - | - |
| 1787454042 | 13.89° C | - | 1024.9 hPa | 0 mm | - | - | - |
| 1787453678 | 14.44° C | - | 1025 hPa | 0 mm | - | - | - |
| 1787453314 | 13.89° C | - | 1024.9 hPa | 0 mm | - | - | - |
| 1787452950 | 13.33° C | - | 1024.9 hPa | 0 mm | - | - | - |
| 1787452585 | 13.89° C | - | 1025 hPa | 0 mm | - | - | - |
| 1787452221 | 14.44° C | - | 1025 hPa | 0 mm | - | - | - |
| 1787451857 | 13.33° C | - | 1025 hPa | 0 mm | - | - | - |
| 1787451492 | 14.44° C | - | 1025.1 hPa | 0 mm | - | - | - |
* Rain latest hour (hover to see other rain measurements)
** Current wind speed in m/s (hover to see current wind gust speed)